Simultaneous Nadir Overpasses (SNOs) Predictions

Prediction of SNOs between METOP-A and NOAA-19 Satellite Orbit:

Table of predicted SNOs for the next 14.0 days since TLE Epoch: 5/20/2016
Index Date (METOP-A) Time (METOP-A) Lat,Lon (METOP-A) SZA (METOP-A ) Date (NOAA-19) Time (NOAA-19) Lat,Lon (NOAA-19) SZA (NOAA-19 ) Distance(km) Time Diff (sec)
1 05/30/2016 05:57:20 76.11, 90.93 54.20 05/30/2016 05:56:05 76.15, 90.76 54.23 6.20 75
2 05/30/2016 06:48:02 -76.08,-101.85 125.85 05/30/2016 06:47:05 -76.08,-101.76 125.84 2.58 57
3 05/30/2016 07:38:42 76.09, 65.52 54.17 05/30/2016 07:38:06 76.10, 65.43 54.18 2.71 36
4 05/30/2016 08:29:24 -76.06,-127.26 125.88 05/30/2016 08:29:07 -76.08,-127.26 125.85 2.47 17
5 05/30/2016 09:20:04 76.07, 40.12 54.14 05/30/2016 09:20:07 76.05, 40.10 54.12 2.13 3
6
